Wind_Speed
8 9 8 8 8 8 8 11 11 12 10 11 11 10 11 9 10 10 9 8 9 12 15 14 10 14 7 6 3 5 5 3 1 3 3 9 4 6 4 6 4 6 7 8 23
6 7 7 7 7 8 10 14 13 12 12 11 11 7 10 8 15 12 9 11 12 16 19 25 22 17 4 8 10 9 4 2 3 5 1 4 6 1 2 11 10 13 13 19 17
2 2 4 5 7 9 13 14 15 13 12 13 8 6 8 4 7 9 9 10 14 17 20 21 19 8 6 8 4 4 3 3 2 4 4 4 6 3 4 4 20 23 21 17 13
3 4 5 7 10 14 15 15 14 12 14 11 6 7 8 7 3 6 11 16 17 14 15 19 19 10 6 5 4 5 2 3 1 2 2 2 5 5 2 5 8 14 14 18 17
7 9 11 13 15 16 17 15 12 12 11 6 3 5 7 9 9 10 10 15 13 15 16 14 19 10 5 2 4 2 1 2 4 6 6 4 4 5 9 7 12 18 20 19 16
12 14 16 18 17 15 14 13 12 10 7 3 3 5 3 4 6 9 10 11 10 10 15 9 12 14 4 4 3 4 5 6 10 10 9 5 5 2 12 8 16 19 23 21 20
16 17 17 17 16 15 14 13 13 14 10 6 5 7 5 2 6 9 5 4 7 9 12 10 10 11 9 5 5 5 4 7 13 6 4 4 3 5 8 8 20 24 21 21 20
15 16 16 15 15 15 15 15 13 11 7 3 4 5 2 5 5 6 10 2 5 5 8 7 8 10 4 7 6 3 4 3 7 5 4 2 7 7 10 11 25 25 23 21 20
15 16 14 13 13 14 14 12 10 8 3 1 3 3 1 2 7 7 10 12 5 5 6 11 11 3 4 4 5 6 3 4 7 8 3 1 7 10 18 8 25 26 25 23 23
14 14 13 13 12 11 11 8 7 4 1 5 6 1 2 4 5 8 13 10 8 14 13 3 2 3 5 5 0 5 5 5 1 6 5 5 7 9 17 3 19 26 22 18 20
12 12 12 12 10 9 7 3 0 2 5 4 7 6 4 2 5 11 12 7 7 7 3 4 6 1 4 3 2 1 3 3 4 4 8 5 9 14 4 14 18 20 24 19 13
10 10 11 10 9 6 5 4 4 2 3 5 6 7 4 7 3 12 14 3 4 3 5 6 3 2 5 4 3 6 3 4 6 6 3 9 10 7 9 7 21 24 23 21 19
8 8 8 8 5 3 6 3 7 2 0 1 2 3 5 5 3 9 13 5 2 5 4 5 2 3 5 5 7 3 2 4 6 7 3 6 7 6 4 10 14 14 17 15 12
9 9 8 6 4 2 3 4 3 4 4 2 2 1 3 1 2 7 10 4 5 3 2 1 2 3 6 3 4 5 4 4 6 4 2 4 3 3 3 3 3 8 11 11 10
8 10 9 8 5 5 2 2 3 1 4 2 1 1 2 3 2 7 7 2 2 4 5 4 1 4 3 3 2 7 7 8 5 4 3 9 3 5 3 4 0 9 10 12 10
6 9 11 10 7 4 3 2 1 5 1 2 1 0 1 2 3 6 16 5 4 4 2 3 2 3 1 4 1 6 6 4 3 3 3 4 1 4 5 4 5 6 9 10 8
7 6 8 8 8 6 6 2 5 5 1 2 1 3 3 3 4 5 5 10 5 5 6 6 4 4 3 5 7 8 6 4 5 5 3 6 5 2 1 5 6 6 2 2 7
9 7 5 7 7 7 5 4 5 3 3 1 1 2 3 3 2 5 3 4 7 5 3 5 6 6 5 2 2 4 4 4 1 1 5 7 3 3 7 18 20 10 6 12 6
10 11 7 5 9 6 2 5 5 3 3 4 4 3 3 5 3 5 4 3 5 7 4 5 4 5 4 5 3 4 4 1 3 2 3 4 6 6 10 5 14 11 23 10 7
6 9 8 6 9 3 5 3 2 2 4 4 3 4 3 5 4 4 3 5 2 7 1 3 4 1 6 6 3 2 1 4 4 2 3 5 5 6 8 14 18 17 13 15 16
4 3 5 6 3 3 4 3 3 2 4 4 4 4 4 3 4 3 3 3 4 6 9 3 3 7 4 3 1 5 4 4 0 4 3 2 5 5 12 11 9 11 12 10 8
3 4 3 4 3 3 2 2 4 1 5 5 5 4 3 4 4 3 2 2 0 2 2 3 3 3 5 9 4 1 4 5 3 5 3 4 10 13 6 19 8 9 11 13 8
4 4 6 4 3 2 2 4 7 3 6 4 3 3 3 3 3 3 3 2 2 1 2 1 2 3 7 6 7 4 6 3 3 2 6 3 5 7 28 23 13 16 19 15 10
3 3 4 7 3 6 4 2 3 5 5 5 2 5 4 4 5 2 4 2 2 4 5 5 3 6 5 4 3 9 14 9 4 2 5 15 17 22 9 7 12 17 16 15 20
4 2 2 2 6 6 4 3 4 2 2 3 4 3 4 2 4 2 3 4 7 2 2 4 5 4 6 8 5 16 17 17 11 14 6 15 12 13 3 2 9 14 14 19 23
4 3 3 4 3 5 5 2 3 3 3 2 5 4 6 3 4 3 0 1 5 3 2 3 4 2 9 7 8 18 15 13 13 14 11 10 13 2 12 13 14 20 27 27 20
8 6 3 3 2 4 2 2 2 6 4 7 6 3 4 1 5 5 7 8 12 5 4 3 3 2 6 4 5 10 7 5 6 7 8 7 5 5 9 12 17 31 29 29 21
Wind_Direction
265 259 250 241 225 210 190 148 157 159 141 138 119 93 81 74 57 56 65 37 24 8 9 5 14 353 319 314 308 120 68 39 311 79 259 34 81 84 100 129 133 148 146 154 160
253 243 231 217 202 183 156 154 157 151 146 134 106 89 52 78 47 55 66 63 24 12 11 358 356 3 61 56 49 78 95 161 213 169 237 115 79 100 78 85 107 130 134 157 165
278 228 199 185 170 153 149 156 155 154 142 126 117 53 30 53 60 31 56 31 7 352 5 11 5 39 46 54 41 66 126 218 6 67 56 46 42 35 48 30 154 157 157 165 178
102 123 132 140 137 139 148 154 155 147 133 130 94 44 52 52 93 36 34 17 11 352 18 21 37 54 52 40 37 77 124 149 220 82 75 52 352 345 311 165 169 181 171 169 171
86 104 119 122 129 143 148 146 137 127 146 141 50 38 43 67 64 43 27 22 16 33 22 12 32 22 24 11 63 81 277 202 225 218 222 203 233 232 272 217 168 170 178 182 186
107 113 116 123 128 128 129 124 119 132 148 120 52 7 53 60 22 16 18 14 21 17 13 16 4 355 12 358 88 311 306 292 254 242 243 206 252 287 271 202 179 173 179 187 191
103 109 114 115 117 115 112 115 120 125 128 135 56 68 76 75 32 26 6 351 13 1 8 16 14 8 336 338 335 297 310 324 279 255 245 216 348 217 358 245 204 195 201 205 211
104 108 109 111 110 112 116 119 126 137 141 96 41 37 105 74 26 27 19 329 311 324 329 19 350 332 311 308 337 343 48 328 304 160 283 93 267 270 322 210 202 208 211 212 215
109 107 106 109 117 121 121 130 134 140 164 307 351 8 4 24 47 33 359 334 318 339 323 296 311 320 346 53 12 9 318 331 355 67 7 201 268 266 316 230 222 220 218 215 226
111 112 112 115 120 121 120 131 150 144 323 328 318 63 68 18 29 359 335 308 307 316 332 276 206 46 29 55 281 309 338 332 279 323 357 283 276 293 324 192 230 237 221 220 234
113 118 121 125 123 107 74 50 93 99 82 58 64 68 53 352 308 360 345 320 314 296 243 15 68 66 284 317 294 60 357 329 295 282 358 288 282 276 176 126 114 113 128 128 117
127 128 133 129 125 125 33 66 58 71 8 38 60 45 44 354 354 355 3 24 25 340 356 29 98 246 301 36 46 40 10 316 290 304 314 301 300 321 140 161 138 130 125 116 106
152 144 139 133 128 88 34 65 117 23 63 352 75 33 35 9 357 345 3 357 5 29 31 124 222 2 56 22 14 322 170 279 253 319 332 340 347 1 359 122 137 132 129 125 121
173 170 165 155 139 132 30 81 69 16 73 307 289 294 344 312 11 337 12 28 7 34 68 144 30 42 25 62 21 316 242 281 285 38 316 19 276 291 304 5 93 138 131 113 112
175 186 183 181 170 175 124 112 3 336 63 273 25 120 318 92 326 2 352 352 31 315 66 258 57 45 50 301 289 258 307 279 301 163 93 342 54 275 58 262 255 43 96 122 139
131 172 191 193 177 190 193 188 321 47 82 45 124 235 118 43 0 45 37 53 30 10 357 242 80 83 267 296 40 284 311 354 35 101 54 274 148 326 345 322 70 93 158 169 165
97 147 177 198 207 192 174 185 47 94 231 46 85 29 81 351 353 63 67 43 34 20 0 352 8 326 356 5 347 17 29 1 17 12 222 329 5 256 93 78 139 191 199 221 233
91 92 128 174 165 165 158 54 80 333 30 267 46 6 92 360 342 50 50 38 9 48 54 35 333 2 345 68 300 332 88 127 246 346 283 323 229 195 147 93 79 116 110 322 310
97 77 80 118 156 157 157 56 185 240 317 355 5 59 39 6 34 85 71 64 31 27 45 10 297 326 23 321 110 326 32 154 121 15 47 285 289 317 239 20 23 20 354 7 36
108 72 57 106 141 143 79 146 97 33 9 25 73 30 104 355 44 51 69 335 355 27 72 318 307 321 300 350 18 88 228 29 11 8 286 299 291 234 324 334 343 343 47 78 75
123 72 58 96 104 72 120 165 123 64 79 75 25 64 60 36 36 54 42 340 15 351 64 25 93 295 349 49 63 352 24 14 49 135 213 272 256 240 317 325 318 355 71 49 38
109 62 53 39 57 47 86 79 125 10 23 80 87 81 71 38 34 73 107 146 267 31 33 346 124 293 282 298 238 113 120 102 97 320 264 251 272 279 291 326 353 70 28 11 20
74 91 49 33 108 335 61 62 57 52 25 41 77 55 74 64 92 65 115 177 154 122 171 192 344 346 350 344 15 3 293 110 164 119 222 216 260 316 318 317 48 23 2 353 343
96 42 45 60 81 127 109 114 105 51 48 55 107 60 74 41 22 62 29 319 310 250 193 145 175 174 208 215 202 281 286 296 177 201 247 254 283 293 334 46 3 348 351 341 324
67 89 56 327 15 90 110 150 126 121 83 52 36 96 130 91 20 35 11 347 339 51 167 117 209 237 233 243 255 272 283 289 280 258 233 278 282 312 82 313 311 310 318 319 310
112 123 92 69 49 58 12 42 128 89 113 36 99 90 62 129 186 231 137 216 234 247 70 354 265 200 289 232 236 264 277 270 271 275 267 271 282 240 306 315 329 332 320 314 315
118 120 127 17 56 79 242 25 132 117 85 120 127 99 45 205 200 228 241 236 245 230 168 217 171 111 267 35 359 299 242 208 226 261 281 275 258 312 320 322 329 321 318 314 313
Height
1517 1517 1518 1519 1522 1522 1522 1522 1527 1528 1527 1530 1530 1531 1530 1529 1529 1526 1526 1525 1524 1524 1522 1521 1520 1519 1517 1515 1515 1516 1534 1545 1536 1533 1531 1522 1522 1523 1524 1525 1528 1528 1529 1529 1534
1516 1516 1517 1518 1518 1518 1519 1524 1526 1528 1529 1529 1529 1533 1529 1530 1530 1527 1528 1527 1526 1523 1521 1520 1516 1515 1516 1517 1517 1519 1540 1533 1529 1528 1526 1523 1523 1521 1525 1527 1530 1529 1531 1532 1534
1513 1514 1514 1515 1516 1517 1520 1525 1528 1528 1530 1532 1534 1531 1531 1531 1531 1530 1530 1528 1526 1524 1521 1520 1518 1514 1518 1519 1521 1524 1534 1529 1526 1525 1523 1521 1524 1524 1525 1529 1527 1528 1530 1532 1533
1513 1513 1513 1515 1516 1519 1524 1528 1530 1531 1530 1532 1533 1534 1533 1532 1538 1532 1530 1529 1527 1524 1521 1520 1518 1516 1521 1526 1524 1529 1527 1526 1525 1524 1521 1524 1523 1524 1525 1526 1526 1527 1527 1531 1533
1513 1514 1515 1517 1520 1525 1528 1529 1530 1529 1531 1535 1535 1534 1535 1534 1534 1533 1531 1528 1529 1528 1524 1524 1522 1524 1526 1529 1527 1529 1527 1526 1524 1524 1523 1522 1523 1524 1523 1524 1524 1524 1526 1527 1529
1517 1518 1519 1522 1525 1527 1528 1529 1529 1532 1535 1536 1536 1535 1536 1536 1536 1533 1530 1532 1533 1531 1526 1528 1528 1528 1527 1527 1528 1529 1527 1527 1524 1523 1522 1523 1523 1524 1519 1522 1524 1523 1523 1525 1526
1519 1520 1522 1524 1526 1527 1529 1530 1532 1534 1537 1538 1538 1538 1538 1539 1536 1534 1534 1535 1534 1532 1530 1530 1529 1530 1530 1529 1529 1528 1529 1525 1521 1522 1522 1522 1524 1523 1518 1518 1520 1520 1520 1522 1524
1522 1524 1525 1527 1529 1530 1532 1533 1535 1537 1538 1538 1539 1539 1539 1538 1536 1535 1535 1534 1533 1531 1531 1531 1532 1531 1530 1529 1529 1530 1532 1538 1521 1519 1523 1524 1533 1516 1516 1515 1515 1517 1516 1518 1521
1527 1528 1530 1531 1532 1533 1535 1536 1537 1538 1539 1539 1540 1539 1538 1538 1537 1536 1535 1533 1531 1531 1531 1531 1532 1532 1531 1535 1543 1541 1545 1538 1529 1524 1525 1524 1527 1513 1512 1513 1512 1512 1513 1516 1518
1530 1531 1532 1533 1534 1535 1536 1538 1539 1540 1540 1538 1538 1541 1540 1539 1537 1537 1535 1533 1533 1532 1530 1530 1532 1536 1538 1545 1562 1549 1545 1538 1534 1528 1524 1524 1521 1511 1509 1505 1505 1506 1509 1513 1515
1531 1532 1533 1535 1536 1536 1538 1539 1543 1543 1540 1540 1539 1539 1539 1540 1539 1538 1536 1534 1533 1533 1535 1532 1541 1547 1540 1538 1537 1538 1542 1542 1534 1527 1526 1524 1522 1510 1507 1507 1506 1506 1507 1512 1514
1532 1533 1535 1536 1537 1538 1540 1540 1541 1544 1541 1541 1541 1541 1541 1541 1541 1540 1536 1535 1535 1538 1533 1539 1545 1537 1536 1537 1538 1539 1542 1544 1535 1527 1528 1523 1518 1508 1505 1509 1507 1507 1510 1514 1515
1533 1535 1536 1537 1539 1541 1540 1541 1542 1543 1544 1543 1543 1543 1543 1543 1542 1539 1537 1536 1536 1537 1539 1543 1540 1536 1538 1541 1542 1542 1541 1542 1542 1533 1524 1523 1522 1516 1511 1509 1510 1511 1512 1514 1515
1533 1535 1537 1538 1542 1540 1541 1542 1543 1543 1552 1547 1544 1544 1543 1542 1543 1540 1539 1539 1537 1539 1538 1539 1538 1538 1540 1542 1543 1547 1535 1534 1536 1540 1548 1530 1550 1522 1516 1516 1514 1513 1512 1514 1517
1533 1535 1536 1538 1539 1541 1543 1542 1543 1544 1582 1547 1544 1545 1543 1544 1544 1542 1541 1539 1540 1540 1541 1544 1540 1542 1544 1545 1541 1543 1533 1533 1530 1539 1540 1541 1546 1528 1518 1520 1517 1520 1518 1519 1520
1533 1534 1536 1538 1540 1541 1542 1543 1544 1558 1569 1547 1543 1543 1544 1544 1543 1542 1543 1541 1540 1539 1539 1540 1539 1541 1542 1540 1539 1536 1533 1532 1533 1539 1563 1543 1546 1541 1531 1524 1524 1522 1521 1519 1521
1534 1535 1537 1538 1540 1540 1541 1543 1558 1573 1544 1550 1547 1544 1545 1546 1544 1546 1550 1551 1557 1557 1559 1547 1546 1542 1541 1544 1539 1541 1545 1567 1562 1571 1568 1541 1545 1542 1529 1522 1520 1520 1522 1522 1520
1536 1536 1536 1537 1538 1540 1542 1545 1560 1556 1549 1544 1545 1545 1549 1548 1547 1551 1552 1560 1556 1557 1562 1565 1567 1548 1543 1546 1549 1547 1551 1579 1578 1581 1571 1545 1549 1537 1523 1521 1523 1524 1523 1521 1518
1537 1537 1537 1537 1538 1541 1543 1563 1569 1555 1551 1550 1547 1550 1552 1550 1550 1553 1560 1563 1563 1560 1569 1571 1562 1548 1545 1545 1546 1548 1559 1550 1564 1574 1582 1561 1541 1523 1519 1518 1523 1522 1521 1517 1517
1538 1538 1539 1539 1540 1541 1545 1558 1554 1551 1550 1549 1554 1552 1560 1558 1557 1555 1562 1566 1564 1562 1561 1564 1571 1552 1548 1545 1546 1546 1548 1565 1577 1589 1575 1563 1555 1545 1528 1524 1520 1520 1519 1517 1517
1539 1539 1541 1541 1542 1542 1557 1556 1551 1550 1549 1552 1555 1558 1559 1560 1559 1561 1568 1567 1564 1563 1562 1565 1570 1561 1553 1553 1555 1556 1562 1560 1561 1574 1582 1575 1560 1532 1528 1529 1529 1523 1520 1519 1517
1540 1542 1543 1542 1544 1547 1553 1549 1551 1551 1550 1551 1553 1557 1560 1560 1563 1564 1567 1565 1564 1564 1567 1566 1574 1583 1563 1553 1549 1551 1558 1564 1586 1575 1581 1575 1550 1525 1529 1527 1526 1524 1524 1523 1521
1541 1543 1544 1542 1556 1557 1549 1551 1554 1553 1554 1554 1556 1556 1557 1562 1569 1565 1564 1564 1564 1564 1566 1566 1578 1587 1570 1559 1555 1559 1552 1560 1567 1578 1574 1584 1555 1522 1526 1526 1528 1527 1524 1522 1520
1543 1548 1545 1544 1546 1548 1551 1554 1556 1555 1556 1556 1557 1558 1561 1565 1564 1566 1566 1565 1565 1564 1563 1565 1572 1575 1583 1572 1569 1565 1552 1555 1561 1581 1561 1549 1538 1529 1529 1529 1526 1524 1522 1519 1515
1543 1548 1548 1555 1551 1550 1551 1553 1556 1558 1557 1557 1559 1560 1562 1570 1569 1569 1568 1568 1565 1563 1564 1567 1576 1570 1567 1564 1563 1556 1554 1552 1554 1550 1559 1538 1537 1530 1531 1529 1525 1521 1517 1512 1507
1544 1546 1548 1550 1550 1550 1553 1555 1554 1557 1558 1561 1564 1564 1564 1567 1568 1569 1568 1569 1569 1565 1565 1566 1575 1570 1566 1563 1563 1556 1549 1548 1548 1544 1540 1538 1534 1531 1529 1527 1524 1519 1513 1506 1501
1545 1546 1548 1552 1552 1555 1557 1554 1555 1555 1559 1560 1561 1564 1567 1565 1565 1565 1564 1563 1562 1563 1567 1569 1573 1581 1564 1571 1568 1557 1543 1542 1539 1535 1536 1539 1530 1528 1525 1523 1519 1513 1508 1503 1498